Epoch 2003 Dec. 27.0 TT = JDT 2453000.5 T 2003 Dec. 26.65139 TT MPC q 1.4305131 (2000.0) P Q z +0.0065150 Peri. 317.14861 -0.10825306 -0.42757479 +/-0.0000348 Node 248.27478 -0.42312329 -0.79710859 e 0.9906802 Incl. 104.96207 -0.89958210 +0.42637741
m1 = 14.7 + 5 logΔ + 7.5 log r